Rutherfordton, NC

1:10 PM EST on December 16, 2017 (GMT -0500)
Rutherford County-Marchman

Weather History for KFQD - December, 2013

Change the Weather History Date:

Sunday, December 29, 2013

  Actual Average (KAVL) Record (KAVL)
Temperature  
Mean Temperature 50 °F -  
Max Temperature 61 °F 48 °F 74 °F (1984)
Min Temperature 39 °F 26 °F -3 °F (1894)
Degree Days  
Heating Degree Days 15    
Moisture  
Dew Point 41 °F    
Average Humidity 82    
Maximum Humidity 100    
Minimum Humidity 50    
Precipitation  
Precipitation 0.63 in - - ()
Sea Level Pressure  
Sea Level Pressure 29.89 in    
Wind  
Wind Speed 5 mph (NW)    
Max Wind Speed 15 mph    
Max Gust Speed 22 mph    
Visibility 8 miles    
Events Rain    
Averages and records for this station are not official NWS values.
T = Trace of Precipitation, MM = Missing Value Source: NWS Daily Summary

Daily Weather History Graph

Daily Weather History Graph

Search for Another Location

Airport or City:

Trip Planner

Search our weather history database for the weather conditions in past years. The results will help you decide how hot, cold, wet, or windy it might be!

Date:

Astronomy

Dec. 29, 2013 Rise Set
Actual Time 7:36 AM EST 5:23 PM EST
Civil Twilight 7:07 AM EST 5:52 PM EST
Nautical Twilight 6:36 AM EST 6:23 PM EST
Astronomical Twilight 6:05 AM EST 6:54 PM EST
Moon 4:21 AM EST (12/29) 2:58 PM EST (12/29)
Length of Visible Light 10h 44m
Length of Day
9h 47m
Waning Crescent, 11% of the Moon is Illuminated
Dec 29
Waning Crescent
Jan 1
New
Jan 7
First Quarter
Jan 15
Full
Jan 24
Last Quarter

Hourly Weather History & Observations

Time (EST) Temp. Windchill Dew Point Humidity Pressure Visibility Wind Dir Wind Speed Gust Speed Precip Events Conditions
12:15 AM 39.6 °F 37.4 °F 38.3 °F 95% 30.12 in 10.0 mi North 3.5 mph - 0.01 in Rain Light Rain
12:35 AM 39.4 °F 37.2 °F 38.7 °F 97% 30.12 in 5.0 mi NNW 3.5 mph - 0.04 in Rain Heavy Rain
12:55 AM 39.6 °F 34.0 °F 38.8 °F 97% 30.07 in 7.0 mi NNE 8.1 mph - 0.06 in Rain Light Rain
1:15 AM 39.7 °F 36.5 °F 38.8 °F 97% 30.06 in 10.0 mi North 4.6 mph - 0.01 in Rain Light Rain
1:35 AM 39.6 °F - 39.2 °F 99% 30.04 in 4.0 mi Calm Calm - 0.05 in Rain Rain
1:55 AM 39.6 °F 37.4 °F 39.2 °F 99% 30.03 in 5.0 mi North 3.5 mph - 0.08 in Rain Light Rain
2:15 AM 39.6 °F 35.4 °F 39.2 °F 99% 30.03 in 5.0 mi North 5.8 mph - 0.01 in Rain Light Rain
2:35 AM 39.7 °F 35.6 °F 39.2 °F 98% 30.02 in 7.0 mi North 5.8 mph - 0.03 in Rain Light Rain
2:55 AM 39.7 °F 37.6 °F 39.2 °F 98% 30.02 in 5.0 mi NNW 3.5 mph - 0.05 in Rain Rain
3:15 AM 39.7 °F 37.6 °F 39.4 °F 99% 30.01 in 5.0 mi NNW 3.5 mph - 0.01 in   Drizzle
3:35 AM 39.6 °F 37.4 °F 39.2 °F 99% 29.99 in 3.0 mi North 3.5 mph - 0.04 in Rain Rain
3:55 AM 39.6 °F 36.3 °F 39.2 °F 99% 29.96 in 5.0 mi North 4.6 mph - 0.05 in Rain Rain
4:15 AM 39.4 °F 36.1 °F 39.0 °F 99% 29.95 in 10.0 mi NNW 4.6 mph - N/A   Drizzle
4:35 AM 39.4 °F 35.2 °F 39.2 °F 99% 29.94 in 5.0 mi NW 5.8 mph - 0.03 in Rain Heavy Rain
4:55 AM 39.2 °F 35.9 °F 39.0 °F 99% 29.91 in 5.0 mi North 4.6 mph - 0.09 in Rain Light Rain
5:15 AM 39.4 °F 36.1 °F 39.2 °F 99% 29.90 in 4.0 mi North 4.6 mph - 0.04 in Rain Rain
5:35 AM 39.6 °F 37.4 °F 39.2 °F 99% 29.90 in 2.0 mi NNW 3.5 mph - 0.13 in Rain Light Rain
5:55 AM 39.6 °F 37.4 °F 39.4 °F 99% 29.89 in 2.0 mi North 3.5 mph - 0.25 in   Overcast
6:15 AM 39.7 °F 37.6 °F 39.6 °F 99% 29.87 in 4.0 mi North 3.5 mph - N/A   Drizzle
6:35 AM 39.7 °F - 39.7 °F 100% 29.86 in 5.0 mi Calm Calm - 0.03 in Rain Light Rain
6:55 AM 39.7 °F - 39.6 °F 99% 29.85 in 4.0 mi Calm Calm - 0.04 in Rain Rain
7:15 AM 39.7 °F 37.6 °F 39.6 °F 99% 29.86 in 4.0 mi NW 3.5 mph - N/A   Drizzle
7:35 AM 39.6 °F 35.4 °F 39.4 °F 99% 29.85 in 4.0 mi North 5.8 mph - 0.01 in   Drizzle
7:55 AM 39.6 °F 34.7 °F 39.4 °F 99% 29.85 in 3.0 mi North 6.9 mph - 0.01 in   Drizzle
8:15 AM 39.7 °F - 39.4 °F 99% 29.85 in 2.5 mi Calm Calm - N/A   Light Drizzle
8:35 AM 40.1 °F - 39.7 °F 99% 29.83 in 7.0 mi Calm Calm - N/A   Overcast
8:55 AM 40.3 °F - 40.1 °F 99% 29.82 in 10.0 mi Calm Calm - N/A   Mostly Cloudy
9:15 AM 41.0 °F - 40.5 °F 98% 29.82 in 10.0 mi Calm Calm - N/A   Mostly Cloudy
9:35 AM 41.4 °F 39.4 °F 41.2 °F 99% 29.84 in 10.0 mi West 3.5 mph - N/A   Overcast
9:55 AM 42.3 °F - 41.7 °F 98% 29.83 in 10.0 mi Calm Calm - N/A   Overcast
10:15 AM 43.0 °F 41.3 °F 41.9 °F 96% 29.83 in 10.0 mi NW 3.5 mph - N/A   Mostly Cloudy
10:35 AM 43.5 °F - 42.1 °F 95% 29.84 in 10.0 mi Calm Calm - N/A   Mostly Cloudy
10:55 AM 44.6 °F - 43.2 °F 95% 29.84 in 10.0 mi Calm Calm - N/A   Scattered Clouds
11:15 AM 45.9 °F - 43.9 °F 93% 29.83 in 10.0 mi Calm Calm - N/A   Mostly Cloudy
11:35 AM 46.6 °F - 43.5 °F 89% 29.82 in 10.0 mi Calm Calm - N/A   Overcast
11:55 AM 48.9 °F - 45.1 °F 87% 29.82 in 10.0 mi West 3.5 mph - N/A   Overcast
12:15 PM 49.3 °F - 45.1 °F 86% 29.82 in 10.0 mi SW 3.5 mph - N/A   Scattered Clouds
12:35 PM 52.0 °F - 46.0 °F 80% 29.81 in 10.0 mi SSW 5.8 mph - N/A   Clear
12:55 PM 53.2 °F - 46.2 °F 77% 29.79 in 10.0 mi SSW 5.8 mph - N/A   Clear
1:15 PM 55.8 °F - 46.9 °F 72% 29.80 in 10.0 mi South 8.1 mph - N/A   Clear
1:35 PM 56.8 °F - 47.3 °F 70% 29.79 in 10.0 mi SW 5.8 mph - N/A   Clear
1:55 PM 60.6 °F - 46.6 °F 60% 29.79 in 10.0 mi NW 8.1 mph 18.4 mph N/A   Clear
2:15 PM 61.2 °F - 43.9 °F 53% 29.79 in 10.0 mi West 15.0 mph 21.9 mph N/A   Clear
2:35 PM 61.7 °F - 44.2 °F 53% 29.79 in 10.0 mi West 13.8 mph 20.7 mph N/A   Clear
2:55 PM 61.3 °F - 43.9 °F 53% 29.80 in 10.0 mi WNW 11.5 mph 19.6 mph N/A   Clear
3:15 PM 61.3 °F - 43.3 °F 52% 29.80 in 10.0 mi WNW 12.7 mph 20.7 mph N/A   Clear
3:35 PM 61.7 °F - 43.5 °F 51% 29.81 in 10.0 mi WNW 12.7 mph 19.6 mph N/A   Clear
3:55 PM 60.6 °F - 41.9 °F 50% 29.82 in 10.0 mi NW 8.1 mph 18.4 mph N/A   Clear
4:15 PM 58.3 °F - 40.3 °F 51% 29.83 in 10.0 mi NW 12.7 mph 19.6 mph N/A   Clear
4:35 PM 57.6 °F - 39.9 °F 52% 29.84 in 10.0 mi NW 13.8 mph 19.6 mph N/A   Clear
4:55 PM 56.5 °F - 39.7 °F 54% 29.85 in 10.0 mi NW 10.4 mph 19.6 mph N/A   Clear
5:15 PM 54.7 °F - 39.6 °F 57% 29.85 in 10.0 mi WNW 13.8 mph 19.6 mph N/A   Clear
5:35 PM 53.2 °F - 39.4 °F 59% 29.85 in 10.0 mi WNW 10.4 mph 18.4 mph N/A   Clear
5:55 PM 52.3 °F - 39.2 °F 61% 29.86 in 10.0 mi WNW 8.1 mph - N/A   Clear
6:15 PM 51.8 °F - 39.2 °F 62% 29.87 in 10.0 mi West 8.1 mph - N/A   Clear
6:35 PM 51.6 °F - 39.4 °F 63% 29.87 in 10.0 mi West 4.6 mph - N/A   Clear
6:55 PM 51.6 °F - 39.4 °F 63% 29.89 in 10.0 mi West 5.8 mph - N/A   Clear
7:15 PM 50.7 °F - 39.4 °F 65% 29.90 in 10.0 mi West 5.8 mph - N/A   Clear
7:35 PM 51.1 °F - 39.0 °F 63% 29.90 in 10.0 mi WSW 4.6 mph - N/A   Clear
7:55 PM 50.7 °F - 38.8 °F 64% 29.91 in 10.0 mi West 5.8 mph - N/A   Clear
8:15 PM 48.0 °F - 38.8 °F 71% 29.91 in 10.0 mi West 9.2 mph - N/A   Clear
8:35 PM 47.1 °F - 38.8 °F 73% 29.92 in 10.0 mi East 3.5 mph - N/A   Clear
8:55 PM 46.9 °F - 39.2 °F 74% 29.92 in 10.0 mi ENE 3.5 mph - N/A   Clear
9:15 PM 46.2 °F - 38.3 °F 74% 29.92 in 10.0 mi Calm Calm - N/A   Clear
9:35 PM 46.6 °F - 38.5 °F 73% 29.93 in 10.0 mi Calm Calm - N/A   Clear
9:55 PM 44.1 °F - 37.9 °F 79% 29.94 in 10.0 mi Calm Calm - N/A   Clear
10:15 PM 43.7 °F 39.1 °F 38.7 °F 82% 29.94 in 10.0 mi West 8.1 mph - N/A   Clear
10:35 PM 41.9 °F - 38.5 °F 88% 29.95 in 10.0 mi Calm Calm - N/A   Clear
10:55 PM 42.4 °F - 38.3 °F 85% 29.95 in 10.0 mi Calm Calm - N/A   Clear
11:15 PM 43.2 °F 39.0 °F 38.7 °F 84% 29.95 in 10.0 mi West 6.9 mph - N/A   Clear
11:35 PM 41.7 °F - 38.3 °F 88% 29.96 in 10.0 mi Calm Calm - N/A   Clear
11:55 PM 42.8 °F - 38.3 °F 84% 29.96 in 10.0 mi Calm Calm - N/A   Clear